Wind_Speed
18 21 21 20 20 21 21 19 20 20 20 21 19 20 21 19 20 20 18 18 16 15 14 13 13 11 11 12 10 11 12 12 12 12 13 13 12 12 12 11 11 11 9 8 8 9 10 8 8 8 6 7 6 5 6 6 5 4 3 3 1 1 1 2 4 4 4 3 1 3 4 2 2 2 4 5 4 5 3 2 2 5 5 4 6
17 19 21 21 21 21 22 20 20 21 21 21 19 19 20 19 20 20 19 19 17 16 15 14 13 12 11 11 11 11 10 10 12 12 13 14 13 11 10 10 10 10 10 9 8 8 10 8 7 7 6 7 6 5 5 5 5 3 3 3 1 1 1 2 4 0 1 4 2 2 3 2 1 2 5 5 6 5 5 4 3 6 6 5 7
16 17 20 22 22 22 22 20 20 21 21 21 19 19 20 20 21 20 19 19 16 16 16 14 13 12 11 11 11 11 10 9 11 12 12 13 13 11 11 11 9 9 9 9 9 8 9 8 7 6 7 8 7 6 5 4 5 3 3 2 1 2 3 4 3 3 4 5 2 0 1 1 0 5 6 5 7 6 6 7 4 4 5 4 4
16 17 18 21 22 23 22 20 21 21 21 21 20 19 19 20 21 20 19 18 16 17 16 14 13 12 11 10 9 9 10 9 9 11 12 12 12 11 10 11 10 9 9 8 8 8 8 8 7 6 6 8 7 7 6 5 5 3 3 3 0 0 3 5 3 1 5 4 1 1 2 1 1 3 5 5 4 3 6 6 2 3 6 3 3
16 18 17 19 21 22 22 21 21 21 21 21 21 20 19 19 21 20 18 18 16 17 17 14 14 13 11 11 9 8 10 10 9 10 11 12 12 11 10 10 9 10 9 8 9 9 7 6 8 8 6 7 7 6 5 5 4 4 3 3 2 2 3 4 3 2 4 4 2 1 2 1 1 4 2 2 4 4 6 5 1 4 6 2 3
15 17 17 18 21 22 23 22 22 22 21 21 21 21 19 20 22 20 19 18 16 16 16 15 15 14 12 12 10 9 10 10 10 9 10 11 10 11 11 11 9 9 9 8 9 10 8 6 7 8 7 7 6 5 5 4 4 4 4 3 3 3 4 3 2 3 4 3 1 3 1 1 1 4 3 1 5 7 1 4 2 5 4 3 6
13 16 17 18 20 21 22 22 23 22 22 22 21 21 21 22 23 21 19 18 17 17 16 15 16 15 13 12 11 11 10 10 10 9 10 10 9 11 12 11 10 9 10 9 8 9 8 7 6 7 8 6 4 4 4 4 4 4 5 3 3 5 3 2 2 3 3 1 0 2 2 2 3 1 2 1 2 4 5 3 4 6 4 4 7
11 13 15 17 20 22 22 22 23 23 23 23 22 22 23 24 24 22 21 19 18 18 17 16 16 16 15 13 12 12 10 10 10 9 9 9 9 10 11 11 11 10 10 9 8 9 8 8 8 6 8 7 5 4 4 5 5 5 5 4 4 6 4 2 2 3 2 2 2 2 2 2 2 1 1 2 3 0 3 5 2 4 3 4 2
9 10 11 14 20 23 23 23 23 23 24 24 23 23 24 26 25 22 22 20 19 20 19 17 16 16 15 14 12 12 11 11 11 10 9 9 8 9 10 11 10 10 11 10 9 9 8 8 8 7 6 7 6 5 4 4 6 6 5 5 4 5 4 2 1 2 2 3 3 2 3 2 1 1 3 2 3 1 2 2 4 0 2 5 4
8 7 8 13 19 23 23 22 22 22 23 23 23 23 24 25 26 23 22 21 20 21 21 18 16 15 15 14 13 13 12 11 12 11 9 9 9 9 10 11 10 9 10 10 10 10 9 7 8 8 6 6 5 6 5 5 5 6 5 5 5 5 4 3 2 1 2 1 2 2 1 2 3 2 1 2 2 0 4 3 4 4 1 4 1
6 6 8 13 19 22 22 22 22 20 20 22 22 23 23 24 25 24 23 23 21 22 22 19 17 16 16 15 14 13 12 11 12 12 11 10 10 10 9 10 10 10 10 11 11 10 9 8 8 8 8 7 6 7 7 5 5 5 5 6 5 5 5 3 3 2 2 1 1 3 3 2 1 0 2 2 4 1 3 5 2 0 1 3 3
8 7 9 11 13 17 19 19 20 18 18 20 19 20 23 24 25 24 23 23 23 23 22 20 18 17 17 16 14 14 13 12 13 13 13 12 10 10 10 10 10 10 11 11 11 11 11 10 9 9 9 8 6 6 6 6 6 5 5 5 4 4 4 3 4 4 3 3 4 3 3 4 4 3 4 3 2 3 2 6 7 5 2 3 5
9 7 8 8 7 11 15 16 16 15 15 18 17 17 21 24 25 25 24 23 23 23 23 21 20 18 17 17 15 15 14 13 14 13 13 13 12 11 11 10 11 10 11 12 10 11 11 11 10 9 8 8 8 8 6 6 7 6 6 4 4 4 4 3 4 4 3 4 4 3 3 3 4 2 3 4 4 2 3 5 6 8 6 1 3
10 8 7 5 5 8 12 13 15 15 15 18 19 18 18 21 25 25 24 23 22 23 23 22 21 19 18 18 17 16 15 14 14 14 14 14 13 12 12 11 11 11 11 12 11 11 11 11 11 10 8 8 8 8 7 6 6 7 7 5 4 5 4 4 4 3 3 4 4 3 2 2 2 2 2 2 3 4 3 1 5 9 9 5 0
7 7 6 4 5 5 7 11 15 16 18 18 18 20 18 19 24 25 23 24 22 22 23 22 22 20 19 18 18 17 17 15 15 14 14 15 14 13 13 12 12 11 11 11 12 12 12 12 12 10 10 9 8 8 7 7 6 6 6 5 5 6 5 4 5 4 3 4 4 3 2 2 2 2 2 2 1 2 3 4 4 4 6 7 3
5 5 5 4 6 6 5 7 7 9 14 15 13 16 18 19 23 24 22 22 22 22 22 21 21 20 19 19 19 18 18 17 16 16 15 16 15 15 15 14 12 12 12 11 11 12 12 12 12 11 10 10 10 10 8 7 8 6 5 5 5 5 5 4 5 5 4 5 4 4 3 2 2 2 2 1 1 3 4 4 4 2 3 4 4
4 5 5 5 8 8 7 7 4 5 10 11 6 3 7 14 20 21 19 19 21 22 21 20 20 20 20 20 20 19 19 18 17 17 16 16 16 16 15 15 13 12 13 13 12 13 13 12 11 11 11 10 9 9 9 8 8 8 7 7 7 5 5 5 6 5 3 4 5 4 4 3 2 2 3 2 1 0 1 1 2 2 2 1 2
2 4 5 7 9 9 9 9 7 8 11 14 13 8 9 14 16 17 18 18 20 20 19 19 20 20 19 20 20 19 19 18 17 17 16 16 17 17 16 16 15 14 12 13 14 14 13 13 12 11 11 11 10 9 9 9 9 9 9 9 8 7 7 7 7 6 5 5 5 4 4 3 3 3 3 3 2 2 2 2 2 1 1 1 1
3 5 5 7 9 9 8 8 8 10 12 16 18 17 19 19 17 20 21 17 18 18 17 19 20 19 18 19 20 20 19 19 18 18 17 17 17 17 17 16 17 16 14 13 15 15 14 14 13 12 12 12 11 11 10 10 10 9 8 8 8 9 9 8 7 7 6 6 4 3 4 3 3 3 3 2 2 2 3 3 3 2 3 2 2
6 9 6 6 9 8 6 8 9 12 15 17 16 15 17 18 19 23 20 16 17 16 15 17 18 17 17 17 19 20 20 20 19 19 19 18 17 17 17 17 17 17 16 14 15 15 15 15 14 13 13 12 12 12 11 11 12 10 9 9 9 10 11 10 8 7 7 6 5 5 5 4 4 3 3 3 3 3 4 4 4 4 5 5 5
8 9 8 3 3 5 4 5 7 11 16 20 17 16 15 17 21 21 17 18 19 14 12 14 14 16 17 17 17 18 19 20 20 20 20 19 19 18 18 17 17 17 17 16 16 16 16 16 15 14 14 14 14 13 12 13 13 12 11 10 10 11 11 10 10 9 8 7 7 6 6 5 5 4 4 4 5 6 7 7 6 6 6 7 7
10 11 11 10 10 8 4 3 2 6 13 20 17 12 10 13 17 17 15 18 19 16 16 14 14 17 20 20 20 18 19 20 20 20 21 20 21 21 19 18 18 18 18 18 18 17 16 16 15 15 15 15 15 15 14 13 14 13 12 11 11 11 11 10 10 10 9 8 8 7 7 7 7 7 6 6 6 7 8 8 9 9 9 9 10
10 10 10 11 12 12 11 10 10 7 9 16 15 10 8 9 11 13 13 15 17 18 21 18 16 19 22 23 23 21 21 22 21 21 21 20 20 20 20 19 18 18 18 18 18 18 18 17 16 16 15 15 16 16 15 14 14 14 14 13 12 12 12 12 11 11 10 10 10 9 9 8 8 9 9 8 8 8 8 8 7 6 6 7 7
10 10 10 11 11 12 13 13 15 16 14 13 13 10 7 6 9 11 12 13 16 19 22 23 20 19 20 21 22 22 23 23 22 21 20 20 20 19 20 20 19 18 19 19 18 17 18 19 18 16 16 16 15 16 16 16 15 15 15 14 14 13 13 13 13 12 12 11 11 11 10 10 9 10 9 8 8 8 8 8 7 7 7 7 7
9 9 9 11 12 12 14 14 14 16 17 16 14 12 8 5 7 9 8 9 11 14 17 20 19 16 17 20 21 22 24 24 23 21 19 19 19 19 19 20 19 18 18 19 20 18 17 19 20 18 17 17 16 16 16 16 16 16 16 15 15 15 14 13 13 13 13 13 12 12 12 11 11 10 10 9 10 10 10 9 9 9 9 8 9
10 10 9 10 12 13 15 15 14 14 15 16 16 14 11 8 5 4 6 7 8 9 9 12 13 14 18 23 24 24 24 24 24 23 21 20 20 19 19 19 20 19 18 18 20 20 19 18 19 20 18 18 19 17 17 17 16 16 16 16 16 16 15 15 15 14 14 13 13 13 13 12 12 12 11 11 11 11 11 10 10 10 10 10 10
10 10 10 11 12 14 15 16 16 15 14 15 15 13 12 12 11 7 3 3 1 3 6 10 12 14 20 25 25 25 25 23 21 21 20 18 18 18 19 20 20 19 19 18 18 20 21 20 19 20 19 19 19 19 19 19 18 17 17 17 17 16 17 16 16 16 15 15 15 15 15 14 14 14 14 13 13 12 12 12 12 11 10 11 11
11 11 11 12 11 12 15 16 16 16 15 15 14 12 10 10 11 12 9 7 8 7 5 8 10 13 21 25 22 19 20 18 17 18 19 19 18 17 18 19 21 21 19 19 19 19 21 21 20 20 20 19 20 21 20 20 20 19 18 18 18 18 17 17 17 17 16 16 16 16 15 16 17 17 17 16 15 14 14 14 13 13 12 12 12
12 12 12 12 11 12 14 16 16 16 16 15 13 12 10 9 10 13 12 9 10 10 8 7 8 8 12 17 14 9 8 8 8 8 9 10 13 15 15 14 17 20 20 19 19 19 19 21 21 20 20 20 20 20 21 21 21 21 20 19 19 19 19 19 18 18 18 18 18 17 17 17 18 20 20 19 17 16 15 14 13 13 13 13 13
13 13 12 12 12 13 15 16 16 17 16 15 13 12 12 11 11 12 12 12 11 10 10 10 9 9 9 8 9 10 9 10 12 13 13 12 9 11 13 13 13 15 18 20 20 19 19 19 21 21 21 21 20 20 21 23 23 22 22 21 20 20 21 20 20 20 20 20 19 19 18 18 18 19 20 20 20 19 18 17 16 14 14 13 14
12 12 12 12 13 14 15 15 16 16 16 15 14 13 13 13 13 12 12 13 11 8 9 12 13 14 16 15 13 13 12 12 12 10 11 13 14 13 11 12 12 12 11 15 18 19 19 19 20 21 21 21 21 21 22 24 25 25 24 22 22 22 22 22 22 22 21 21 20 20 20 19 19 19 19 19 19 20 20 20 20 20 19 18 17
11 11 11 12 13 13 14 15 15 15 15 14 13 12 12 12 12 13 13 13 12 9 9 13 15 17 19 19 15 12 14 15 13 9 8 10 12 13 11 12 14 15 13 10 12 15 17 19 19 20 21 22 22 23 24 25 26 28 27 26 24 23 22 23 23 23 23 22 22 22 21 20 20 20 21 21 21 22 23 24 25 25 25 25 24
11 11 11 11 13 13 14 14 14 14 14 14 12 12 12 10 9 10 11 11 11 10 11 14 15 16 18 19 16 15 16 16 10 5 5 8 10 11 11 10 13 17 18 15 14 15 16 17 18 19 20 21 22 24 25 27 28 29 30 30 28 25 23 23 23 24 24 24 24 23 23 22 21 21 21 23 24 26 27 28 27 27 26 26 26
10 10 10 11 13 13 13 13 13 13 13 13 12 11 10 9 9 10 9 9 8 9 12 15 16 16 17 17 16 15 14 13 10 7 6 8 9 9 11 11 11 16 19 19 19 20 20 20 21 21 21 21 22 23 24 26 29 30 31 32 33 31 28 25 24 24 24 25 25 25 26 25 25 24 23 23 22 23 25 26 27 26 26 26 26
9 9 10 11 12 13 12 11 11 11 12 12 12 11 10 10 10 11 10 9 7 9 12 14 15 16 17 16 16 15 12 11 11 10 7 5 5 6 8 11 13 15 18 21 21 21 22 23 24 23 22 22 23 24 23 24 27 30 32 33 34 34 33 30 28 26 24 24 24 25 26 27 27 27 27 26 25 23 21 21 23 24 25 26 27
8 9 10 11 12 12 11 9 9 10 11 11 10 10 10 9 10 11 11 10 9 10 12 12 13 14 14 14 15 15 12 11 12 10 7 6 7 6 6 9 12 14 17 20 22 23 23 23 24 25 26 25 24 24 25 25 25 27 30 33 36 36 35 33 32 31 29 28 26 26 26 26 26 26 26 26 27 26 24 23 22 22 23 23 25
8 9 10 11 11 11 10 9 8 10 11 10 9 8 8 8 9 10 10 10 11 11 11 10 10 11 11 11 11 12 11 9 10 9 7 8 10 9 8 9 11 12 14 16 20 23 25 25 25 26 28 29 27 26 26 27 27 27 27 31 35 36 35 33 32 32 32 31 31 31 30 29 29 28 27 26 25 26 26 27 26 25 25 24 25
8 9 10 11 11 10 9 8 8 10 11 10 9 8 8 8 8 9 9 9 9 10 10 9 9 9 8 7 6 8 9 8 9 9 8 8 8 9 9 10 11 12 13 14 16 18 20 21 23 24 26 28 27 26 25 27 28 28 28 30 33 34 33 32 31 30 30 31 32 32 33 32 32 32 31 30 27 26 26 28 28 28 27 27 27
8 10 10 10 9 8 8 8 9 11 11 10 9 9 8 8 8 8 8 8 8 9 8 8 8 8 7 6 6 7 9 9 9 9 9 8 8 9 9 10 11 13 15 16 15 16 17 18 18 20 23 24 24 24 24 25 27 28 28 29 30 31 31 30 29 28 28 29 31 32 33 34 35 35 34 33 31 28 28 28 29 28 28 29 29
9 11 9 8 8 8 9 10 11 11 11 10 9 9 9 9 9 8 8 8 8 8 7 7 8 8 8 7 7 8 10 11 10 10 11 10 9 10 10 10 10 12 15 17 17 16 17 18 18 18 19 21 24 25 23 22 24 26 28 29 29 30 30 29 28 26 26 27 28 29 31 32 33 34 34 34 34 33 32 31 29 28 29 30 29
8 9 8 7 8 9 10 11 11 11 11 10 10 10 9 9 8 8 8 9 9 8 8 7 8 9 9 9 8 8 9 9 9 10 12 12 12 12 12 12 12 12 13 15 17 17 17 18 17 17 18 19 18 16 14 15 16 19 24 27 29 29 29 29 28 27 26 26 26 27 28 28 28 29 29 30 31 33 35 35 35 34 34 32 29
7 7 8 8 9 9 10 10 11 11 11 11 11 11 10 9 8 8 9 9 9 8 8 8 8 9 9 9 9 10 10 10 10 10 12 14 15 14 14 14 15 15 16 18 19 18 18 17 17 17 18 17 15 14 15 17 18 19 21 23 26 30 31 29 27 26 26 26 27 27 26 26 26 26 26 26 27 29 32 35 36 37 37 36 34
8 8 10 10 10 10 10 11 11 11 11 11 11 11 10 9 9 9 9 9 9 9 9 8 9 9 8 8 9 11 12 13 13 12 12 14 15 16 16 16 15 16 18 19 18 17 17 16 16 16 16 16 18 20 21 23 26 27 26 22 23 29 32 30 27 26 26 26 26 26 26 26 26 27 27 28 27 27 29 32 33 33 33 34 35
8 9 11 11 11 12 12 12 12 12 13 12 12 11 10 10 10 11 11 10 10 10 9 9 9 9 8 9 10 11 13 14 14 14 14 14 15 16 16 16 15 15 17 17 16 16 15 15 14 14 14 15 19 23 25 25 24 25 25 23 20 23 29 33 32 29 26 26 25 24 24 24 24 25 27 27 28 28 29 29 30 30 30 31 33
8 9 10 11 12 13 14 14 14 14 14 13 13 13 13 12 12 12 12 12 12 11 11 10 11 10 10 10 11 12 13 14 15 15 15 16 16 17 17 17 16 15 16 16 15 15 14 15 14 14 14 15 17 21 24 25 23 22 23 22 20 19 23 31 37 35 31 28 25 24 24 24 23 23 23 24 25 26 27 29 29 29 30 31 33
7 9 10 11 12 12 13 15 15 16 15 14 14 14 14 14 14 14 14 13 13 13 13 12 12 12 12 12 12 12 13 13 14 15 16 18 18 18 19 19 17 16 15 16 16 15 14 13 12 12 13 14 16 20 23 22 21 21 21 20 18 18 18 23 32 38 38 35 31 28 28 29 27 26 25 24 24 24 25 27 28 29 31 33 35
8 9 10 11 11 12 13 14 15 16 16 16 16 15 15 15 16 16 15 15 15 14 14 14 14 14 13 13 13 13 13 13 14 15 16 17 17 18 19 19 18 16 15 15 13 11 9 10 12 14 14 14 15 17 19 20 21 21 20 18 17 16 16 17 22 29 34 36 36 35 36 36 35 33 31 30 29 28 27 27 28 30 32 34 36
8 9 10 10 11 12 13 15 16 16 16 17 17 17 17 17 17 17 17 17 16 16 15 15 15 15 14 14 13 13 13 14 14 14 15 15 16 17 18 18 16 14 13 11 10 10 11 13 16 16 15 15 16 15 15 16 15 13 11 11 10 9 9 11 14 17 20 24 28 31 34 36 36 36 35 33 32 33 33 32 31 32 32 34 37
7 8 9 9 10 12 13 15 15 16 16 16 17 17 17 17 17 17 17 17 17 17 17 17 16 16 15 14 14 14 14 14 14 14 15 16 16 17 17 17 16 15 15 16 18 21 22 22 22 22 19 18 19 18 17 17 15 12 11 11 12 11 11 12 13 14 17 19 20 21 23 26 27 28 29 29 30 32 32 32 32 32 33 34 36
7 8 9 10 11 12 13 15 15 15 16 16 16 16 16 16 16 16 17 17 18 18 18 17 17 16 15 15 15 15 15 15 15 16 17 18 20 21 21 23 23 23 24 25 27 29 30 28 28 28 25 22 23 24 23 24 24 23 23 24 24 23 22 22 20 19 22 22 20 19 19 20 21 22 22 24 25 26 27 28 29 30 31 31 32
9 9 9 10 11 12 13 14 14 15 15 16 16 17 17 17 16 17 17 18 19 19 18 18 17 17 17 18 18 17 17 17 17 18 18 19 21 22 24 26 28 29 29 29 29 31 30 27 26 27 26 25 25 25 26 26 26 26 26 26 27 27 28 30 29 27 28 27 23 21 20 20 21 21 21 23 23 23 24 25 24 25 27 30 32
Wind_Direction
168 170 165 163 163 160 159 160 158 158 156 155 162 157 155 158 155 158 162 159 161 162 164 164 166 172 165 163 166 159 158 160 158 154 151 149 152 154 153 157 149 146 154 144 133 132 132 139 138 138 147 147 149 145 137 146 140 122 137 157 174 189 167 115 90 78 108 100 24 104 110 141 130 124 196 190 159 161 168 167 196 173 157 166 168
171 170 166 165 166 163 161 163 162 160 158 159 166 162 159 161 158 162 163 162 167 168 169 169 170 173 168 169 170 162 162 163 159 154 149 148 154 153 148 153 151 151 156 146 143 139 135 140 138 144 153 156 160 136 130 145 137 133 153 162 189 151 107 96 108 117 133 107 63 75 91 107 126 214 221 190 169 181 184 161 191 201 183 168 173
173 172 168 169 169 166 164 167 165 162 161 164 169 164 162 163 162 165 164 164 170 171 173 172 171 175 172 174 174 166 167 168 160 153 149 147 152 158 154 156 156 154 153 148 149 146 141 146 152 154 150 159 170 152 151 163 141 134 134 136 205 150 114 95 112 313 22 90 128 25 139 137 231 248 239 212 184 179 189 183 193 196 158 141 178
174 175 171 171 172 168 167 170 168 165 165 167 170 168 166 165 164 169 168 168 171 172 174 172 172 177 173 175 176 166 166 168 163 155 152 151 154 161 162 160 159 154 156 158 150 145 147 151 157 159 152 160 170 162 162 162 151 159 145 130 252 134 119 119 127 18 38 58 120 307 313 15 12 249 224 215 198 182 194 185 202 176 131 129 238
175 179 175 173 176 169 168 173 171 169 169 171 173 171 171 167 166 172 173 171 173 173 173 172 173 175 172 173 170 163 168 171 171 163 155 158 161 162 162 163 164 157 159 165 153 149 157 153 151 155 162 165 162 168 170 162 169 181 162 138 112 61 90 119 123 92 73 51 53 63 351 1 355 328 301 235 302 289 190 142 81 176 133 141 234
179 181 177 177 178 170 170 176 175 172 173 175 176 175 173 169 169 173 173 174 176 174 173 172 171 173 174 175 167 164 176 175 177 174 161 165 170 165 165 169 172 164 161 172 161 157 164 157 150 155 167 172 159 167 171 163 179 174 160 146 115 91 81 100 90 82 98 79 100 134 104 137 135 333 332 299 304 311 46 102 169 189 159 170 188
185 183 182 180 180 174 172 178 179 175 176 177 178 178 174 170 171 174 175 176 176 175 176 173 172 174 176 179 172 170 180 180 180 183 172 176 176 167 166 169 176 170 164 177 173 162 163 160 165 162 161 174 167 160 164 168 175 158 161 173 133 123 94 54 23 61 107 147 201 114 67 59 93 340 323 41 294 327 352 326 186 179 193 187 196
190 186 188 183 180 180 177 180 183 179 177 179 180 179 174 170 172 174 176 177 177 178 179 177 176 176 177 181 181 177 182 182 184 188 182 184 180 167 167 169 175 174 167 177 177 169 169 165 175 174 159 168 176 177 182 177 169 153 164 176 150 145 130 79 35 40 62 69 50 53 33 58 105 97 28 341 295 319 317 314 84 134 142 103 332
193 188 198 192 182 182 181 182 187 182 178 180 181 179 172 169 173 175 176 178 179 179 180 180 180 180 181 183 184 186 188 182 183 193 186 182 180 169 169 168 171 179 177 179 176 174 181 169 170 181 167 159 171 193 197 175 162 159 166 165 159 161 150 142 114 52 9 40 56 48 23 7 291 125 139 236 302 34 284 318 86 168 123 92 0
190 186 208 207 190 184 183 186 190 187 180 181 182 179 172 169 172 176 177 178 180 181 180 181 182 182 186 186 185 189 192 181 182 194 187 179 182 175 171 169 171 182 182 181 182 180 184 176 171 183 174 160 180 194 185 177 168 163 168 167 170 171 164 180 172 165 292 6 78 120 80 333 337 24 63 286 310 329 294 301 159 205 144 103 41
180 197 213 211 197 185 183 188 193 190 183 181 182 179 173 170 173 176 179 179 180 182 181 182 184 184 188 191 189 189 190 182 183 191 186 183 187 180 177 177 177 185 183 181 184 181 181 179 177 183 177 174 188 179 169 183 179 170 179 175 172 173 169 184 199 210 241 245 174 155 178 221 195 278 260 316 337 351 317 316 310 228 127 135 140
172 201 206 204 197 182 182 189 192 190 180 174 177 179 174 171 174 177 180 181 180 181 182 184 185 186 188 193 193 190 188 185 186 189 185 187 192 186 184 187 185 188 186 184 186 186 183 180 183 191 183 177 179 171 174 186 176 174 187 180 176 187 187 192 206 211 208 230 232 193 204 208 179 232 227 186 329 359 344 304 328 351 299 176 148
178 192 190 192 196 185 185 187 187 182 171 169 173 176 173 171 175 179 182 183 182 180 183 185 187 189 189 192 195 195 193 190 188 189 188 190 194 191 188 192 195 193 187 186 188 190 187 181 187 197 189 178 176 179 187 183 172 170 173 180 190 196 206 205 209 227 225 237 246 223 232 217 181 240 256 182 174 175 239 281 335 343 326 6 146
184 185 177 181 200 191 179 181 189 180 170 178 179 172 171 172 175 179 182 185 184 182 183 186 188 190 191 192 194 196 198 197 190 190 192 192 195 197 195 194 199 199 193 195 195 191 187 185 188 193 187 180 177 178 180 179 184 178 167 181 209 199 201 213 216 240 247 229 235 242 273 264 219 229 260 236 193 184 215 309 13 352 338 344 121
178 176 168 173 206 200 166 178 197 186 175 185 182 172 172 172 174 180 183 184 185 185 185 188 189 191 193 194 195 196 199 200 197 194 194 195 197 201 200 198 200 202 202 205 201 191 187 188 189 189 187 185 180 178 177 178 193 199 177 185 214 207 203 223 227 227 240 235 230 253 279 270 263 247 227 265 307 62 52 42 31 359 344 338 338
161 165 156 172 205 207 174 171 187 172 171 182 183 179 177 172 174 180 183 184 185 187 188 190 190 192 194 195 196 198 199 200 202 200 196 197 199 201 202 203 204 202 201 203 200 193 192 189 189 191 190 190 187 182 181 182 194 208 204 197 208 214 208 226 243 235 233 235 226 237 254 238 248 268 268 278 52 57 50 32 6 30 48 350 330
180 171 158 188 205 204 186 176 178 151 153 164 175 187 175 172 176 179 184 189 189 189 190 191 192 194 196 198 199 199 200 201 202 202 200 200 201 201 202 205 208 203 198 198 197 195 194 190 190 195 194 196 196 189 185 189 198 203 211 214 213 223 226 222 240 250 238 234 228 213 216 232 254 276 287 280 218 163 65 334 337 47 70 8 325
244 189 180 196 196 196 181 170 175 155 150 175 186 181 174 172 173 178 187 196 196 193 193 194 195 196 197 199 202 201 201 202 203 203 202 202 203 203 201 203 206 206 201 197 195 195 196 195 195 198 197 198 201 199 192 196 209 210 213 220 213 221 236 227 226 244 252 247 237 211 206 222 239 243 243 243 240 208 181 239 268 122 113 315 328
144 156 182 212 198 192 173 150 149 141 154 184 185 179 179 172 169 180 190 198 198 196 199 200 199 201 200 202 205 206 205 205 205 203 203 205 205 204 205 203 202 205 207 199 193 194 197 197 197 197 199 201 202 206 202 200 214 220 219 224 217 217 232 232 223 232 249 250 233 222 228 220 225 247 248 246 250 206 199 236 252 207 198 235 256
129 138 156 219 207 192 163 148 159 156 155 165 174 183 183 173 175 183 188 195 196 198 207 208 206 206 206 205 208 210 209 208 207 204 203 208 208 206 208 207 202 204 206 202 198 197 198 198 199 197 198 201 203 206 205 203 210 217 218 226 227 219 221 228 231 230 236 243 234 232 239 227 223 242 254 258 258 246 235 240 242 228 215 218 228
109 101 93 90 146 157 157 155 168 162 142 141 165 192 188 181 185 183 185 195 194 193 206 213 217 216 212 211 215 220 217 212 209 207 205 207 208 209 209 209 206 204 204 204 203 203 202 200 201 202 201 202 203 204 207 209 210 212 216 225 228 222 217 221 230 233 236 241 236 231 234 234 235 236 240 251 258 247 231 226 226 222 224 227 224
100 77 65 58 64 84 91 57 89 156 135 126 142 177 181 183 187 180 184 196 193 194 203 214 226 224 218 217 220 225 227 220 211 208 208 207 207 208 209 209 209 208 207 205 205 207 208 204 203 206 206 205 205 204 207 211 211 212 215 220 224 223 220 222 228 232 236 242 239 235 235 237 240 242 240 243 254 256 245 238 225 212 219 231 225
68 73 69 56 54 71 81 69 64 80 116 122 125 143 163 177 182 174 178 189 192 197 204 214 226 225 222 224 221 219 224 227 218 209 208 208 207 207 208 208 208 209 210 209 207 208 209 208 208 208 208 210 209 206 206 212 214 214 214 218 223 222 219 221 228 232 233 237 239 239 239 239 239 239 238 238 247 258 268 277 268 240 246 257 243
56 69 68 60 54 59 67 66 66 69 83 107 114 115 134 176 195 189 187 197 204 205 208 213 220 223 226 229 226 219 222 228 223 213 211 209 208 207 207 210 211 209 209 210 211 211 211 211 212 213 211 212 213 207 206 211 217 217 218 220 224 225 221 221 226 231 233 233 235 237 237 237 240 242 241 242 247 254 263 277 283 275 272 277 274
80 80 72 65 59 57 57 55 58 65 72 82 91 92 95 138 194 205 205 211 217 219 222 222 221 223 230 230 225 221 223 226 222 219 217 212 210 209 206 209 213 214 211 208 209 212 214 212 212 215 216 214 216 214 209 212 217 219 221 222 226 228 227 226 228 232 234 235 235 237 238 237 239 244 245 245 247 251 256 261 263 262 262 261 258
94 87 77 67 59 58 61 60 58 62 68 73 77 77 71 77 102 176 198 206 221 233 247 249 237 233 240 237 227 221 222 221 218 220 220 215 214 213 209 208 211 217 217 210 207 210 214 215 212 214 218 217 218 218 216 216 218 221 222 223 226 228 229 231 233 234 235 238 238 238 240 240 238 240 242 243 244 245 248 251 254 258 261 262 262
91 85 77 71 64 59 62 66 66 63 62 66 72 71 62 59 63 69 107 146 236 275 285 281 261 244 244 243 233 226 227 222 215 217 221 221 220 217 214 209 207 214 220 217 211 208 210 216 216 215 218 220 219 220 222 221 220 224 226 224 224 226 228 230 233 236 236 237 238 238 239 240 239 238 239 242 244 246 247 247 251 257 260 261 264
88 84 79 74 70 64 62 67 71 68 61 58 61 65 59 49 45 38 40 62 54 27 341 298 276 251 242 241 239 236 236 230 220 215 217 223 227 229 230 220 207 206 214 221 220 213 208 211 217 219 219 221 222 220 222 223 223 225 229 229 226 226 228 230 230 233 235 234 235 236 237 238 238 238 237 237 239 243 246 246 247 251 253 253 255
87 83 79 74 73 69 64 64 68 70 67 59 54 57 58 50 38 26 19 33 41 25 6 330 299 282 258 251 255 267 268 268 272 259 247 242 236 240 249 243 223 212 211 216 223 223 214 208 212 219 220 222 225 223 222 223 223 224 228 231 231 230 231 233 232 231 232 233 235 237 239 239 239 238 238 236 235 236 239 243 246 247 246 249 252
85 83 81 77 73 71 68 66 65 66 65 59 51 47 46 45 42 33 21 18 18 14 10 354 330 338 345 324 327 350 351 337 330 324 317 313 292 261 245 242 248 239 221 215 221 226 224 214 210 214 218 221 224 225 225 223 222 223 225 228 232 233 232 233 235 234 233 233 234 237 240 243 244 244 241 239 236 234 234 236 239 241 242 244 248
79 79 81 77 73 70 68 67 65 65 64 61 54 46 38 33 30 30 26 19 13 7 12 12 7 8 12 8 357 352 356 357 352 340 320 306 301 293 259 242 269 285 251 223 221 225 230 229 219 213 216 221 225 227 227 225 224 223 224 227 230 233 234 234 235 237 237 237 237 239 242 245 247 249 248 244 241 239 240 242 243 244 245 245 244
76 71 70 71 69 64 64 64 65 66 65 62 61 58 50 39 29 26 24 22 18 13 15 21 22 21 22 22 9 356 5 11 6 0 338 306 297 296 277 255 268 287 286 262 238 230 232 237 236 227 220 220 225 229 230 228 226 224 225 227 229 231 234 235 234 236 238 240 241 243 245 247 248 249 249 247 244 245 248 251 253 255 255 254 252
79 74 66 64 63 58 55 57 60 64 64 60 60 62 59 56 52 42 32 27 27 25 22 24 25 26 28 28 22 17 17 13 5 358 332 312 302 291 278 261 252 261 270 269 255 244 236 234 241 245 240 232 229 229 230 230 229 228 227 227 227 229 232 234 235 235 235 237 240 242 244 247 250 252 252 249 244 244 248 251 255 257 258 258 257
73 74 70 65 62 57 52 50 52 57 59 52 49 53 56 59 63 57 46 39 42 43 36 29 27 27 27 23 20 21 22 14 7 8 357 339 329 314 307 300 277 264 266 263 256 252 248 241 239 243 249 250 246 239 235 231 229 229 229 229 228 228 230 232 235 236 235 236 237 239 242 245 248 252 255 256 254 249 248 249 251 252 254 256 257
67 66 66 64 60 54 50 47 50 57 56 47 40 41 45 50 53 47 38 34 49 61 52 39 31 27 24 19 14 15 23 22 10 5 8 3 335 304 303 305 293 280 274 267 261 259 258 254 250 247 250 255 256 254 252 246 236 231 230 230 230 229 230 232 235 237 238 238 239 240 241 243 245 248 250 253 257 257 255 251 249 250 254 258 260
65 65 64 59 49 41 39 38 47 61 60 46 36 34 36 42 48 45 37 31 43 59 57 48 40 33 28 25 17 9 10 19 17 6 354 345 326 302 296 296 289 283 278 273 270 267 260 255 254 251 246 247 251 253 254 257 254 244 234 231 229 229 229 231 234 237 239 241 243 244 244 245 246 247 248 249 251 254 255 255 254 254 255 258 261
59 63 67 59 40 28 27 26 34 52 50 35 30 35 34 37 41 40 38 39 45 48 43 40 42 35 28 30 24 9 360 6 14 8 354 343 334 324 314 301 290 282 277 274 274 273 268 264 264 260 249 245 248 250 249 251 256 254 245 236 230 228 230 232 235 238 240 243 245 247 248 249 250 250 251 252 252 252 252 253 254 255 256 257 258
55 54 55 46 28 18 19 16 23 38 31 16 17 27 30 36 36 28 29 40 49 45 33 28 30 23 12 13 10 1 357 356 353 352 354 350 337 329 326 318 306 294 285 279 275 275 275 274 273 271 261 253 253 255 253 251 252 253 251 244 236 231 231 235 238 240 243 245 248 250 250 251 252 253 252 252 253 253 252 251 252 253 256 257 258
53 49 38 24 13 10 11 11 22 26 12 0 11 21 24 31 26 14 15 28 38 38 29 22 18 8 360 353 342 338 344 344 337 332 335 337 330 324 324 323 314 302 293 286 279 275 274 274 271 269 265 259 257 259 261 257 254 253 252 247 240 233 233 236 240 242 246 248 251 253 254 253 253 253 253 252 252 251 251 252 252 252 253 255 258
43 40 23 8 9 12 8 7 15 12 358 358 11 14 15 18 11 4 6 11 16 17 14 12 8 0 354 347 336 332 334 334 331 322 317 320 321 314 312 314 314 307 298 292 286 281 277 275 274 271 268 263 258 259 265 268 265 261 258 250 239 231 232 236 240 243 247 250 253 254 255 255 255 254 254 252 250 249 249 250 250 248 250 254 257
32 28 17 12 15 15 7 1 3 0 355 0 6 5 7 7 359 356 357 354 353 352 351 355 354 347 345 340 331 326 322 319 318 311 305 306 309 306 304 301 298 298 297 295 294 291 287 283 279 276 276 272 268 276 297 304 298 291 280 264 246 237 236 237 239 242 245 249 252 253 253 254 255 255 254 253 250 249 248 248 248 247 249 253 256
22 19 20 20 13 9 3 356 354 355 356 358 358 357 2 358 350 350 346 342 343 340 336 339 339 335 332 330 325 322 316 310 307 302 297 297 299 298 296 292 290 289 289 289 289 290 289 288 285 282 281 281 287 300 304 294 285 282 279 267 252 245 242 239 238 241 244 247 250 252 252 254 254 254 254 252 250 249 247 246 248 250 252 254 255
11 10 15 14 4 360 356 349 349 352 354 355 353 352 353 347 345 349 346 341 340 335 327 322 321 320 319 317 318 317 313 308 303 299 295 293 293 292 289 287 287 286 283 281 280 282 284 285 284 283 280 277 278 278 271 264 260 258 259 260 251 244 243 242 240 241 243 245 248 251 253 254 254 254 254 254 252 250 246 245 246 249 251 253 254
6 7 9 5 355 350 346 343 346 350 351 350 348 346 345 346 348 349 345 339 333 327 322 316 312 310 308 308 308 307 304 301 298 296 292 288 287 287 285 282 279 276 273 270 268 273 280 284 284 283 277 271 271 272 267 264 263 263 267 270 261 249 245 242 240 242 246 247 248 251 254 255 255 253 251 252 252 251 248 246 246 247 248 249 251
3 4 4 357 349 343 339 339 342 346 346 346 347 345 343 345 346 342 338 335 331 327 322 316 311 306 300 298 299 297 295 293 292 291 290 287 285 284 283 280 275 271 268 265 266 271 274 275 276 278 276 272 273 275 274 272 272 272 272 272 269 265 256 243 237 239 245 247 248 251 256 259 261 260 255 252 251 249 248 247 247 246 246 246 247
2 2 358 350 342 338 337 336 338 340 341 342 342 342 339 337 337 335 332 330 328 325 320 313 308 303 297 295 293 290 288 287 286 286 284 283 280 276 275 275 274 271 267 264 264 265 266 273 282 290 291 289 285 282 281 280 277 273 272 272 278 283 275 255 244 243 246 248 247 250 256 261 264 268 269 265 260 256 252 250 247 245 244 243 244
356 353 348 343 339 336 335 333 333 335 336 334 333 333 332 332 331 330 329 327 325 322 317 315 312 307 301 296 290 288 287 286 284 282 281 280 277 273 271 269 265 263 262 260 260 265 278 301 314 316 316 313 305 299 298 294 286 279 277 279 284 290 289 275 260 255 256 257 256 257 262 263 264 267 270 269 266 265 261 257 253 248 244 243 244
343 339 338 338 334 330 330 328 328 329 328 327 327 326 326 327 327 326 326 326 325 323 320 317 314 310 306 301 296 293 289 285 282 279 277 278 278 278 279 276 271 274 284 293 303 313 318 319 314 310 310 308 305 307 311 308 300 289 278 272 275 286 296 292 283 279 276 273 271 269 269 268 266 265 265 265 265 264 261 259 256 253 251 249 248
330 328 329 331 328 327 327 323 321 321 320 320 319 319 321 322 322 324 325 324 323 322 320 318 315 312 309 305 301 298 295 292 290 286 283 282 280 280 285 290 288 289 299 309 309 304 300 300 298 295 292 291 291 292 294 295 294 290 287 287 285 284 286 283 283 288 290 289 287 282 276 271 268 264 261 261 261 260 257 254 251 250 250 250 249
318 321 326 328 326 324 321 317 316 316 316 315 315 315 317 318 319 321 322 321 320 320 317 315 315 313 311 311 309 304 301 299 296 292 291 289 283 279 281 286 286 284 287 291 291 288 287 287 285 283 281 279 279 280 281 283 283 282 284 287 287 286 285 278 272 274 278 279 279 278 272 267 264 260 257 256 254 253 251 249 247 246 244 243 243
319 323 322 318 316 316 314 314 316 316 314 314 314 314 315 316 317 319 318 317 317 316 313 312 311 309 309 309 307 303 301 298 293 288 287 286 284 281 278 276 277 280 282 282 278 277 278 278 276 277 280 279 276 277 280 284 286 284 282 282 282 284 283 277 272 274 275 271 268 265 263 260 259 258 257 256 252 249 248 247 247 247 244 239 237
Height
784 786 789 792 795 797 801 804 806 809 811 814 816 817 819 821 823 825 827 829 830 832 833 834 836 837 838 839 841 842 844 845 846 848 848 849 850 851 851 853 854 855 855 856 857 858 858 859 860 861 862 862 862 863 863 863 864 864 864 865 865 865 865 864 865 865 865 865 865 864 864 864 864 864 865 865 865 866 865 865 865 866 866 866 866
783 786 788 791 795 797 801 804 806 809 811 814 816 817 819 821 823 825 826 828 830 831 833 834 835 836 838 839 840 842 843 845 846 847 848 849 850 850 851 852 853 854 855 855 856 857 858 859 860 861 861 862 862 863 863 864 863 864 864 865 865 865 865 864 865 865 865 865 864 864 864 864 864 864 864 864 864 865 865 865 865 865 865 865 865
785 786 788 791 794 796 800 803 805 808 811 814 816 817 820 821 823 825 826 828 829 831 832 834 835 836 838 839 840 841 843 844 846 847 848 849 850 850 851 852 853 854 855 855 856 857 858 859 860 860 861 862 862 863 863 864 863 864 864 864 865 865 865 865 865 865 865 865 865 866 865 865 866 864 863 863 863 864 864 864 864 864 865 865 865
786 786 787 790 793 796 799 802 805 808 811 813 816 817 819 821 823 824 826 827 829 830 832 833 835 836 838 839 840 841 843 844 845 847 848 849 850 850 851 852 853 854 855 855 856 856 857 859 859 860 861 862 862 862 863 863 863 863 864 864 864 864 865 865 866 865 865 865 866 867 865 866 869 866 862 862 862 862 863 863 863 863 864 865 865
786 786 786 789 791 795 798 801 804 806 810 812 814 816 818 820 823 825 826 827 829 830 832 833 835 837 838 839 840 841 842 843 845 846 847 848 849 850 851 852 852 853 854 855 855 856 857 858 859 860 861 861 861 862 862 862 863 863 863 864 864 864 864 865 866 865 866 866 866 867 868 870 870 865 863 863 861 861 862 862 863 863 863 864 864
783 784 785 787 790 794 798 800 802 805 808 811 813 815 818 820 822 825 826 827 829 830 831 833 834 836 837 839 840 841 842 843 844 845 847 848 849 850 851 851 852 853 854 855 855 856 857 858 859 860 861 861 861 862 862 862 863 863 863 864 864 864 864 865 865 866 866 866 866 867 868 870 867 864 866 866 863 861 861 862 863 862 863 863 863
782 783 784 786 789 792 796 799 800 803 807 810 812 814 816 819 821 824 826 827 828 830 831 833 834 836 837 838 840 841 842 843 844 845 846 847 848 849 850 851 852 852 853 854 855 856 857 858 858 859 860 861 861 861 861 862 862 863 863 864 864 865 865 865 866 866 866 866 866 866 866 866 865 865 866 867 867 864 861 861 862 861 862 862 862
784 785 784 785 789 791 794 797 799 801 804 807 810 813 815 817 820 822 825 826 828 830 831 832 834 835 837 838 840 841 842 843 844 845 845 846 847 848 850 851 851 852 853 853 854 855 856 857 858 858 859 860 861 861 861 861 862 863 863 864 864 865 865 866 866 866 866 867 867 867 867 866 866 865 865 865 867 867 864 861 861 861 861 862 862
784 785 785 785 787 790 793 795 797 799 802 805 807 810 813 816 819 822 824 826 827 829 831 832 834 835 836 837 839 840 841 842 844 844 845 846 847 848 849 850 851 852 853 853 854 855 856 856 857 858 858 859 860 861 861 861 862 863 863 864 864 865 866 866 866 866 867 867 867 867 867 867 866 866 866 865 864 867 867 862 861 862 862 862 863
785 785 786 785 786 788 792 794 796 797 799 803 805 808 812 815 818 821 822 825 826 828 830 831 833 835 836 837 838 839 840 842 843 844 845 846 847 848 849 850 851 851 852 853 854 855 855 856 856 857 858 858 860 860 861 862 862 863 863 864 864 865 866 866 866 867 867 867 868 868 868 867 867 866 866 866 864 866 866 863 861 862 862 863 863
786 786 786 786 786 787 790 793 795 796 799 802 804 807 810 813 817 820 821 823 825 827 829 831 832 834 835 836 837 839 840 841 842 843 844 845 846 847 848 849 850 851 852 853 853 854 855 856 856 857 858 858 859 860 861 862 862 863 863 863 864 865 865 866 866 867 867 867 867 868 868 867 867 867 866 866 865 865 866 864 862 861 862 863 863
786 788 787 785 785 786 789 792 794 796 798 801 803 806 809 812 815 819 821 822 824 826 828 830 832 833 834 836 837 838 839 840 842 843 844 845 846 847 848 849 850 851 852 852 853 854 854 855 856 856 857 858 858 859 860 861 862 862 862 863 864 864 865 865 866 866 866 867 867 867 867 866 866 866 866 866 866 865 866 865 863 862 862 862 862
787 790 788 785 786 787 789 792 794 796 798 800 803 805 808 811 814 817 819 821 823 824 827 829 830 832 833 835 836 838 839 840 841 842 843 844 846 847 847 848 849 850 851 852 852 853 854 855 856 856 856 857 858 859 860 860 861 862 862 863 864 864 865 865 865 866 866 866 866 866 866 866 866 866 865 866 866 866 866 865 864 863 863 862 862
786 788 788 787 788 788 789 792 794 796 799 801 803 805 808 810 813 816 818 821 823 824 826 827 829 831 833 834 835 837 838 839 840 841 842 844 845 846 847 848 849 849 850 851 852 853 854 854 855 856 856 857 857 859 860 860 861 861 862 863 864 864 864 865 865 865 866 866 866 866 865 866 865 865 866 865 865 865 865 865 865 864 864 862 862
784 786 787 789 789 788 790 791 794 797 799 801 803 804 807 809 812 815 817 820 822 823 825 826 828 830 831 833 834 836 837 838 839 840 841 842 843 845 846 846 848 849 850 850 851 852 853 854 855 856 856 857 857 859 860 860 861 862 862 862 863 864 864 865 865 865 865 865 865 865 865 865 865 865 866 866 866 865 865 865 866 866 867 865 862
784 786 788 788 789 789 790 791 794 796 799 803 805 806 807 809 811 814 817 820 821 823 824 825 827 829 830 832 833 834 836 837 838 839 840 841 842 843 844 845 846 847 848 850 851 852 853 854 855 856 856 857 857 858 859 860 861 861 862 862 863 863 864 864 865 864 865 865 865 865 865 865 865 865 866 866 866 866 866 866 866 866 869 869 866
785 786 788 789 787 788 789 792 795 796 799 802 807 811 811 810 812 815 818 821 821 822 824 825 826 828 829 831 832 833 835 836 837 838 839 839 841 841 843 844 845 846 847 848 850 851 852 853 854 855 856 856 857 857 858 860 860 861 861 862 862 863 863 864 864 864 864 864 865 865 865 865 865 865 866 865 865 866 866 867 866 866 867 869 869
789 787 787 787 787 788 789 793 796 798 799 800 805 811 810 811 814 817 819 822 822 822 823 825 825 827 829 830 831 833 834 835 836 837 838 839 840 840 841 843 844 845 846 847 848 850 851 852 853 854 855 856 856 857 858 859 859 860 861 861 861 862 863 863 863 863 863 864 864 864 865 865 865 865 866 865 865 866 866 866 867 866 866 867 868
795 793 790 786 785 789 789 792 795 797 800 800 802 807 807 809 813 815 817 819 821 821 822 824 825 826 828 829 831 832 833 834 835 836 838 838 839 840 840 841 842 844 845 846 847 848 850 851 852 853 854 855 856 856 857 858 858 859 860 860 861 862 862 862 863 863 863 863 863 864 864 865 865 865 865 865 865 865 866 866 866 866 867 867 866
796 795 795 789 786 788 789 792 794 796 801 804 806 808 808 809 809 810 813 816 818 820 822 824 824 826 827 828 831 832 833 834 834 835 837 837 839 839 840 841 841 842 844 845 846 847 848 849 850 852 853 854 855 856 857 857 858 858 859 860 860 861 861 861 862 862 862 863 863 863 864 864 865 865 865 865 865 865 866 866 866 866 866 866 866
791 791 794 792 790 790 790 792 795 797 801 805 809 809 809 809 808 809 811 813 815 818 820 823 824 825 826 827 830 832 833 834 833 834 835 836 837 838 839 840 840 841 842 843 845 846 847 848 849 850 851 852 853 855 856 856 857 858 858 859 859 859 860 861 861 861 861 862 862 863 863 863 864 864 864 865 864 864 865 864 865 865 865 865 865
788 790 792 792 792 793 794 795 795 796 799 804 809 809 809 809 808 809 810 810 813 815 818 820 823 825 825 826 828 830 832 833 833 833 833 834 835 836 837 839 839 841 841 842 843 845 846 847 848 849 850 851 852 853 855 855 856 857 857 858 858 858 859 859 860 861 861 861 862 862 862 863 863 863 863 864 863 863 863 863 863 863 864 864 863
790 792 792 792 793 794 797 799 797 797 798 802 806 807 808 808 807 809 809 809 811 812 814 817 820 822 824 825 827 828 829 831 831 831 832 832 833 834 836 837 838 839 840 841 842 843 845 846 847 848 849 850 851 851 853 854 855 856 856 857 857 857 858 858 859 859 860 860 861 861 861 862 862 862 862 862 862 862 862 862 862 862 862 862 862
796 796 796 796 796 795 798 800 799 800 800 802 804 805 806 806 806 808 809 810 811 811 813 815 817 819 822 824 826 826 827 828 829 829 830 831 832 833 834 835 836 837 838 840 841 842 844 845 846 847 848 849 850 850 852 853 853 854 855 856 856 856 857 857 858 858 859 859 860 860 861 861 861 861 861 861 861 861 861 861 861 861 861 862 862
803 803 803 802 800 798 799 800 800 801 802 803 804 804 806 806 806 808 809 811 813 814 815 816 817 819 820 822 824 825 826 826 825 826 827 829 830 830 832 834 835 836 836 838 840 841 842 843 844 846 847 848 849 849 851 851 852 853 854 854 855 855 856 856 857 857 858 858 859 859 859 859 860 860 860 860 860 860 861 860 861 861 860 861 860
809 808 808 806 805 803 802 802 802 803 804 804 805 806 807 808 808 810 811 812 814 816 816 816 817 818 819 820 822 823 824 823 822 823 825 826 827 828 830 832 833 835 835 836 837 839 841 842 843 844 846 847 848 849 849 850 851 852 852 853 854 854 855 855 856 856 857 857 857 858 858 858 859 859 859 859 859 859 859 859 860 860 859 860 859
810 810 810 809 809 808 807 806 807 807 807 807 807 809 810 810 811 812 811 812 813 814 814 814 813 815 819 821 820 820 820 819 819 820 822 824 825 826 828 829 831 833 834 835 835 837 839 840 841 843 844 845 846 847 849 849 850 851 851 852 852 853 854 854 855 855 855 856 856 856 857 857 857 857 858 858 858 858 858 858 858 858 858 859 858
809 810 811 811 811 811 810 810 810 810 811 811 811 811 811 811 812 812 812 811 811 812 815 815 815 817 822 823 821 820 820 818 818 818 820 822 823 824 826 827 829 830 832 834 834 835 836 838 840 841 842 844 845 846 847 848 849 850 850 851 851 852 852 852 853 853 854 855 855 855 855 855 855 856 856 856 857 857 857 857 857 857 857 857 857
809 811 811 812 813 813 813 813 812 813 814 814 815 814 813 814 814 813 812 811 811 813 815 817 818 820 822 821 820 820 819 818 818 817 818 821 822 823 823 825 827 829 830 832 833 833 834 835 837 838 840 842 843 843 844 845 847 848 849 849 850 850 851 851 851 852 852 853 853 853 853 853 853 853 853 854 854 855 855 855 856 856 856 856 856
809 811 811 812 813 814 815 816 815 815 815 815 816 815 814 815 816 815 814 813 814 815 815 817 818 819 820 819 819 819 818 818 819 819 821 822 822 821 822 824 826 828 829 830 831 831 832 832 833 835 837 838 840 840 841 842 844 845 846 847 848 848 849 849 849 850 850 850 851 851 851 851 851 851 851 851 852 852 853 853 854 854 854 854 854
810 811 812 813 814 815 816 816 817 817 817 817 817 815 814 814 815 816 816 815 816 817 817 818 819 819 818 817 817 818 818 819 820 822 824 824 823 821 822 824 826 827 827 828 828 829 829 830 830 831 833 835 836 836 837 839 840 842 844 845 845 846 846 847 848 848 848 849 849 849 849 849 849 849 849 849 849 850 850 850 851 851 852 852 852
813 813 813 813 815 816 817 817 818 819 819 820 820 820 819 818 817 817 817 817 818 819 819 820 820 820 818 817 817 818 819 820 821 821 822 824 823 822 822 824 826 827 827 827 827 826 826 826 826 827 828 830 831 832 833 835 836 838 840 842 843 844 844 844 845 846 846 847 847 847 847 847 847 847 847 847 847 848 848 848 848 848 849 850 850
814 815 815 816 816 817 818 819 819 820 821 822 822 822 823 823 823 823 822 822 822 822 822 821 821 822 821 820 820 820 820 821 822 822 822 822 824 824 823 824 825 827 827 827 826 826 824 823 823 823 824 825 826 828 829 831 832 834 836 837 839 840 841 842 842 843 843 844 844 845 845 845 845 845 845 845 844 844 845 845 845 845 846 846 847
815 815 816 818 818 819 820 820 820 821 822 823 823 823 824 824 825 825 825 825 825 825 824 823 823 823 823 822 822 821 821 821 822 822 822 823 824 825 824 824 824 825 826 826 826 825 825 824 823 821 821 822 822 824 825 827 828 829 831 833 834 836 837 838 839 840 840 841 841 842 842 842 843 843 843 843 842 842 842 842 842 842 842 842 843
816 816 817 819 819 820 821 821 822 822 823 824 824 823 824 824 824 825 825 825 825 825 825 825 824 824 824 823 822 822 823 823 822 822 821 821 822 822 823 823 823 824 825 825 825 824 824 825 825 824 823 821 821 822 823 824 825 826 827 829 830 832 833 835 836 837 837 838 838 839 839 839 839 839 840 840 841 841 840 840 839 839 839 839 839
816 817 818 819 820 821 822 822 822 823 824 826 826 825 825 825 825 825 825 824 824 825 825 826 826 826 826 825 824 823 824 823 822 822 820 820 820 820 821 822 823 824 824 824 824 824 823 822 822 822 822 820 820 820 821 822 823 824 825 826 827 828 829 830 831 832 834 834 835 835 835 835 835 836 836 837 838 838 838 838 837 836 836 836 835
816 817 819 820 821 821 821 822 822 823 825 826 826 826 826 826 826 826 826 825 825 826 826 827 826 827 827 827 826 825 825 824 823 822 822 822 822 821 821 822 823 823 822 822 822 821 821 820 819 819 818 817 817 818 819 820 821 822 823 824 825 825 826 827 827 829 830 830 831 831 831 832 832 832 833 834 835 835 835 835 835 834 833 833 832
817 818 819 821 822 822 822 822 822 823 825 825 825 826 826 826 827 827 826 826 827 827 828 827 827 827 827 827 827 826 825 824 823 822 823 823 823 822 822 822 822 822 821 820 819 818 818 818 817 816 816 816 816 816 817 818 819 820 821 821 822 823 824 825 825 826 827 827 828 828 828 829 828 828 830 831 831 832 832 831 831 831 830 829 828
818 820 821 822 823 822 822 822 822 824 825 824 825 825 825 826 827 827 827 827 827 828 828 828 828 828 827 827 826 826 825 824 822 821 821 822 822 821 821 820 820 821 820 819 818 817 816 815 814 814 814 814 814 814 815 816 817 817 818 818 820 821 821 822 822 823 824 824 824 824 824 825 825 825 826 827 828 828 828 828 828 828 826 825 825
819 821 822 822 822 822 822 822 823 824 824 824 825 825 826 827 827 827 827 827 827 828 828 828 828 827 827 827 826 825 825 823 822 821 820 819 818 818 818 817 817 818 819 818 817 816 814 813 812 812 812 812 813 813 815 815 815 815 815 815 816 817 817 819 820 821 821 821 820 820 820 820 821 821 822 823 823 824 824 824 824 823 821 820 821
821 822 823 822 823 823 823 824 824 824 824 824 825 825 826 827 827 827 827 827 827 827 827 827 827 826 826 826 825 825 824 823 822 821 820 818 816 816 817 816 816 817 817 818 817 816 814 812 811 811 811 811 811 812 814 815 815 815 815 815 817 816 815 816 817 817 817 817 817 817 816 816 816 816 817 817 818 818 819 819 819 818 817 817 818
822 822 823 823 824 824 825 825 824 825 825 824 825 825 826 827 827 827 827 827 827 826 826 826 826 825 825 824 824 823 823 822 822 820 819 817 816 816 816 816 816 816 815 816 816 815 813 811 810 809 809 809 810 812 815 815 814 813 812 812 814 816 815 814 814 814 814 813 813 813 813 813 812 812 812 812 812 813 813 813 812 812 813 814 815
822 822 823 823 824 825 825 825 825 825 825 825 825 825 825 826 826 826 827 827 826 826 826 825 825 825 824 824 823 822 821 820 820 819 818 816 814 814 814 814 814 814 813 814 814 813 811 809 808 807 808 807 807 808 809 808 805 805 805 805 806 809 810 812 812 811 810 809 809 809 809 809 809 808 808 808 808 808 808 807 807 808 809 810 810
823 823 823 824 825 824 825 825 825 825 825 825 825 825 825 825 826 825 826 826 825 825 825 824 824 823 823 823 822 821 820 818 817 817 816 815 814 813 812 812 813 813 812 812 812 811 809 807 806 805 805 804 803 803 803 802 803 804 805 805 805 805 806 808 809 809 808 807 806 806 806 805 805 804 804 803 803 803 803 803 803 804 805 805 806
824 825 825 825 825 824 824 824 824 824 825 824 824 824 824 824 825 825 825 824 824 824 823 823 822 822 821 821 820 819 818 816 815 814 814 813 813 812 811 811 811 810 810 810 809 808 806 805 804 803 802 801 801 800 800 801 803 804 803 803 804 803 803 804 804 804 804 803 803 803 802 802 801 801 800 799 799 798 799 799 799 800 800 800 801
825 826 826 826 826 825 825 824 824 824 824 824 824 824 823 824 824 824 823 823 823 822 822 821 821 820 819 819 818 817 816 815 813 813 811 811 810 809 808 808 808 807 807 806 805 804 803 802 801 801 800 800 799 799 798 798 799 800 800 800 801 800 800 800 800 799 799 799 799 799 799 799 799 798 797 796 795 795 795 795 795 795 795 795 795
826 826 827 827 826 826 825 825 824 824 824 823 824 823 823 823 823 822 822 822 821 821 820 819 819 818 817 816 816 815 814 813 812 811 810 809 808 807 805 805 804 804 803 802 802 801 801 801 800 799 799 799 798 798 797 797 797 797 797 798 798 797 798 797 797 796 797 797 797 797 797 796 796 795 794 793 793 792 792 791 790 790 790 790 790
826 826 827 827 826 826 826 825 825 825 824 824 823 823 822 822 821 821 820 820 819 819 818 818 817 816 815 814 814 813 812 811 810 809 808 807 806 805 804 802 802 802 801 800 800 800 799 799 798 797 798 797 797 797 797 796 796 796 796 796 796 796 796 796 795 795 795 794 794 794 793 792 791 791 790 790 789 788 787 786 785 785 785 785 786
826 826 826 826 827 827 826 826 825 825 824 824 823 822 822 821 821 820 819 819 818 817 817 816 815 814 814 813 812 811 810 809 808 807 806 805 805 804 803 801 801 801 800 800 799 798 798 798 797 796 796 795 795 795 796 796 796 795 795 795 794 794 795 794 794 794 792 792 791 791 789 788 787 787 786 785 784 784 782 781 780 779 779 779 780
826 826 826 826 827 827 826 826 825 825 824 824 823 822 822 821 820 820 819 819 818 817 816 815 814 813 813 812 811 810 809 808 807 806 805 804 803 802 801 800 799 798 799 799 799 797 797 796 795 793 793 793 792 792 792 793 794 793 793 793 792 792 792 791 790 790 789 787 787 787 786 785 784 783 782 781 780 779 778 776 775 774 773 773 773
825 825 826 826 826 826 826 825 825 824 823 823 822 821 821 820 820 819 819 818 817 816 815 814 813 812 812 811 810 809 808 807 806 805 804 802 800 799 798 798 797 796 796 796 796 794 793 793 792 790 789 789 789 789 789 789 790 790 791 790 789 789 787 785 786 786 784 782 782 782 781 780 780 779 778 777 776 774 773 772 771 769 768 768 767